Regional Weather Roundup
Issued by NWS Goodland, KS

Home | Current Version | Previous Version | Graphics & Text | Print | Product List | Glossary On
Versions: 1 2 3 4 5 6 7 8 9 10 11 12 13 14 15 16 17 18 19 20 21 22 23 24 25 26 27 28 29 30 31 32 33 34 35 36 37 38 39 40 41 42 43 44 45 46 47 48 49 50
000
ASUS43 KGLD 241208
RWRGLD

GOODLAND FORECAST AREA HOURLY WEATHER ROUNDUP
NATIONAL WEATHER SERVICE GOODLAND KS
600 AM MDT THU APR 24 2014

...OFFICIAL OBSERVATIONS...

CITY           SKY/WX    TMP DP  RH WIND       PRES   REMARKS
GOODLAND KS    CLOUDY    46  33  60 N16       29.90R
HILL CITY KS   CLOUDY    52  41  66 N15       29.78R
IMPERIAL NEB   CLOUDY    46  35  65 NW14      29.89R
MCCOOK NEB     CLOUDY    51  35  54 N14       29.83R
AKRON CO       CLEAR     36  18  48 NW14      29.96R
BURLINGTON CO  CLOUDY    45  24  43 NW20      29.93R
LIMON CO       CLEAR     32  21  64 N10       29.99R
$$

...UNOFFICIAL OBSERVATIONS...

CITY           SKY/WX    TMP DP  RH WIND       PRES   REMARKS
COLBY KS       PTCLDY    50  37  62 NW17      29.86R
LENORA KS        N/A     51  32  48 NW15        N/A
LEOTI KS         N/A     52  32  46 N7          N/A
NORTON KS      CLOUDY    46  39  76 NW10      29.79R
SHARON SPRINGS   N/A     50  33  53 N17G26      N/A
ST FRANCIS KS  CLOUDY    45  34  65 NW12      29.90R
WAKEENEY KS      N/A     51  38  59 MISG        N/A
TRENTON NEB      N/A     47  32  56 NW12        N/A
KIT CARSON CO    N/A     43  19  37 MISG        N/A
WRAY CO        FAIR      45  34  65 NW15      29.92
$$



USA.gov is the U.S. government's official web portal to all federal, state and local government web resources and services.